Pecs, Hungary

1:29 PM CEST on April 25, 2017 (GMT +0200)
Pecs

Weather History for LHPP - January, 2013

Change the Weather History Date:

Thursday, January 3, 2013

  Actual Average Record
Temperature  
Mean Temperature 37 °F -  
Max Temperature 43 °F 36 °F - ()
Min Temperature 31 °F 25 °F - ()
Degree Days  
Heating Degree Days 28    
Moisture  
Dew Point 33 °F    
Average Humidity 83    
Maximum Humidity 93    
Minimum Humidity 64    
Precipitation  
Precipitation 0.00 in 0.05 in - ()
Sea Level Pressure  
Sea Level Pressure 30.50 in    
Wind  
Wind Speed 5 mph ()    
Max Wind Speed 10 mph    
Max Gust Speed -    
Visibility 6.3 miles    
Events      
T = Trace of Precipitation, MM = Missing Value Source: Averaged Metar Reports

Daily Weather History Graph

Daily Weather History Graph

Search for Another Location

Airport or City:

Trip Planner

Search our weather history database for the weather conditions in past years. The results will help you decide how hot, cold, wet, or windy it might be!

Date:

Astronomy

Jan. 03, 2013 Rise Set
Actual Time 7:29 AM CET 4:14 PM CET
Civil Twilight 6:54 AM CET 4:48 PM CET
Nautical Twilight 6:16 AM CET 5:26 PM CET
Astronomical Twilight 5:40 AM CET 6:02 PM CET
Moon 10:53 PM CET (1/3) 10:11 AM CET (1/3)
Length of Visible Light 9h 54m
Length of Day
8h 45m
Waning Gibbous, 68% of the Moon is Illuminated
Jan 3
Waning Gibbous
Jan 5
Last Quarter
Jan 11
New
Jan 19
First Quarter
Jan 27
Full

Hourly Weather History & Observations

Time (CET) Temp. Windchill Dew Point Humidity Pressure Visibility Wind Dir Wind Speed Gust Speed Precip Events Conditions
12:45 AM 33.8 °F 27.7 °F 32.0 °F 93% 30.48 in 2.5 mi WNW 6.9 mph - N/A   Overcast
1:00 AM 33 °F - 31 °F 91% 30.52 in 2 mi WNW 6.7 mph - -   Mist
1:13 AM 33.8 °F 27.7 °F 32.0 °F 93% 30.54 in - WNW 6.9 mph - N/A   Clear
1:45 AM 33.8 °F 28.6 °F 32.0 °F 93% 30.51 in - WNW 5.8 mph - N/A   Clear
2:45 AM 32.0 °F 25.6 °F 30.2 °F 93% 30.51 in - NW 6.9 mph - N/A   Clear
3:45 AM 33.8 °F 27.7 °F 30.2 °F 87% 30.51 in - WNW 6.9 mph - N/A   Clear
4:45 AM 33.8 °F 27.0 °F 30.2 °F 87% 30.51 in - NW 8.1 mph - N/A   Clear
5:15 AM 33.8 °F 27.0 °F 30.2 °F 87% 30.51 in - NW 8.1 mph - N/A   Clear
5:45 AM 33.8 °F 28.6 °F 30.2 °F 87% 30.54 in - WNW 5.8 mph - N/A   Clear
6:00 AM - - - N/A% - - WNW 5.8 mph - N/A   Clear
6:15 AM 33.8 °F 28.6 °F 30.2 °F 87% 30.54 in - NW 5.8 mph - N/A   Clear
6:45 AM 33.8 °F 28.6 °F 30.2 °F 87% 30.54 in - WNW 5.8 mph - N/A   Clear
7:00 AM 34 °F - 31 °F 82% 30.58 in 6 mi WNW 6.7 mph - -   Partly Cloudy
7:15 AM 33.8 °F 27.7 °F 30.2 °F 87% 30.54 in - WNW 6.9 mph - N/A   Clear
7:45 AM 33.8 °F 27.0 °F 30.2 °F 87% 30.54 in - WNW 8.1 mph - N/A   Clear
8:15 AM 33.8 °F 29.6 °F 30.2 °F 87% 30.57 in - WNW 4.6 mph - N/A   Clear
8:45 AM 35.6 °F 29.9 °F 32.0 °F 87% 30.57 in - WNW 6.9 mph - N/A   Clear
9:15 AM 35.6 °F 30.7 °F 32.0 °F 87% 30.57 in - WNW 5.8 mph - N/A   Clear
9:45 AM 37.4 °F 32.1 °F 32.0 °F 81% 30.57 in - NW 6.9 mph - N/A   Clear
10:15 AM 37.4 °F 32.1 °F 32.0 °F 81% 30.57 in - WNW 6.9 mph - N/A   Clear
10:45 AM 39.2 °F 35.0 °F 33.8 °F 81% 30.57 in - NW 5.8 mph - N/A   Clear
11:45 AM 41.0 °F 37.1 °F 33.8 °F 76% 30.54 in - West 5.8 mph - N/A   Clear
12:00 PM - - - N/A% - - WNW 5.8 mph - N/A   Clear
12:15 PM 41.0 °F 38.0 °F 35.6 °F 81% 30.54 in - WSW 4.6 mph - N/A   Clear
12:45 PM 42.8 °F 41.1 °F 33.8 °F 70% 30.51 in - WSW 3.5 mph - N/A   Clear
1:00 PM 42 °F - 34 °F 64% 30.54 in 14 mi WSW 4.5 mph - -   Partly Cloudy
1:15 PM 42.8 °F 41.1 °F 33.8 °F 70% 30.51 in - WSW 3.5 mph - N/A   Clear
1:45 PM 41.0 °F 39.0 °F 33.8 °F 76% 30.48 in - West 3.5 mph - N/A   Clear
2:15 PM 41.0 °F 39.0 °F 35.6 °F 81% 30.48 in - West 3.5 mph - N/A   Clear
3:00 PM - - - N/A% - - West 5.8 mph - N/A   Clear
3:15 PM 41.0 °F - 33.8 °F 76% 30.48 in - WSW 2.3 mph - N/A   Clear
3:45 PM 41.0 °F - 33.8 °F 76% 30.48 in - West 2.3 mph - N/A   Clear
4:15 PM 39.2 °F 37.0 °F 33.8 °F 81% 30.48 in - WSW 3.5 mph - N/A   Clear
4:45 PM 39.2 °F 37.0 °F 35.6 °F 87% 30.48 in - West 3.5 mph - N/A   Clear
5:15 PM 37.4 °F - 33.8 °F 87% 30.48 in - WSW 2.3 mph - N/A   Clear
5:45 PM 41.0 °F 37.1 °F 35.6 °F 81% 30.45 in - WSW 5.8 mph - N/A   Clear
6:15 PM 39.2 °F 37.0 °F 33.8 °F 81% 30.45 in - WSW 3.5 mph - N/A   Clear
6:45 PM 41.0 °F 37.1 °F 33.8 °F 76% 30.45 in - WSW 5.8 mph - N/A   Clear
7:00 PM 40 °F - 35 °F 74% 30.48 in 7 mi WSW 6.7 mph - -   Partly Cloudy
7:15 PM 39.2 °F 37.0 °F 33.8 °F 81% 30.45 in - WSW 3.5 mph - N/A   Clear
7:45 PM 37.4 °F - 33.8 °F 87% 30.42 in - WSW 2.3 mph - N/A   Clear
8:15 PM 41.0 °F 37.1 °F 33.8 °F 76% 30.42 in - West 5.8 mph - N/A   Clear
9:45 PM 39.2 °F 32.5 °F 33.8 °F 81% 30.42 in - WNW 10.4 mph - N/A   Clear
10:45 PM 39.2 °F 33.0 °F 33.8 °F 81% 30.42 in - WNW 9.2 mph - N/A   Clear
11:45 PM 39.2 °F 34.2 °F 33.8 °F 81% 30.42 in - WNW 6.9 mph - N/A   Clear